Location: Buckland
(65.9785°N, 161.1281°W)
Time: 06:30:20
(UTC+00:00)

Transit 2A Rocket - Pass Details

Date: 29 November 2020
Orbit: 592 x 910 km, 66.7° (Epoch: 21 January)

Event Time Altitude Azimuth Distance (km) Brightness Sun altitude
Exits shadow 18:38:57 - 289° (WNW) 2,481 7.0 -8.0°
Reaches altitude 10° 18:39:17 10° 289° (WNW) 2,352 6.9 -8.0°
Maximum altitude 18:44:39 77° 205° (SSW) 759 5.0 -7.6°
Drops below altitude 10° 18:49:30 10° 120° (ESE) 2,134 9.0 -7.2°
Sets 18:51:43 0° 119° (ESE) 3,003 10.2 -7.0°
